Hourly Weather Suhorechka

Today, 24 January, Sunday

Time Temperature Precipitation Wind Pressure Humidity
00:00 -20°C° 0.1 mm 6 mps 742 mmHg 94%
01:00 -18°C° 0.1 mm 5 mps 742 mmHg 94%
02:00 -15°C° 0.3 mm 5 mps 740 mmHg 94%
03:00 -14°C° 0.3 mm 5 mps 740 mmHg 95%
04:00 -12°C° 0.3 mm 4 mps 740 mmHg 95%
05:00 -11°C° 0.4 mm 4 mps 740 mmHg 95%
06:00 -9°C° 0.4 mm 3 mps 740 mmHg 95%
07:00 -8°C° 0.4 mm 3 mps 740 mmHg 96%
08:00 -6°C° 0.6 mm 3 mps 740 mmHg 97%
09:00 -4°C° 0.6 mm 3 mps 740 mmHg 98%
10:00 -2°C° 0.6 mm 3 mps 741 mmHg 99%
11:00 -2°C° 0.3 mm 4 mps 741 mmHg 99%
12:00 -2°C° 0.3 mm 4 mps 741 mmHg 99%
13:00 -1°C° 0.3 mm 4 mps 741 mmHg 99%
14:00 -1°C° 0.2 mm 4 mps 741 mmHg 99%
15:00 -1°C° 0.2 mm 4 mps 741 mmHg 99%
16:00 -1°C° 0.2 mm 4 mps 741 mmHg 99%
17:00 -1°C° 0.1 mm 4 mps 742 mmHg 99%
18:00 -1°C° 0.1 mm 4 mps 742 mmHg 99%
19:00 -1°C° 0.1 mm 4 mps 742 mmHg 98%
20:00 -2°C° 0 mm 4 mps 743 mmHg 98%
21:00 -2°C° 0 mm 5 mps 743 mmHg 98%
22:00 -4°C° 0 mm 5 mps 743 mmHg 97%
23:00 -4°C° 0 mm 5 mps 743 mmHg 97%

Tomorrow, 25 January, Monday

Time Temperature Precipitation Wind Pressure Humidity
00:00 -5°C° 0 mm 5 mps 744 mmHg 97%
01:00 -6°C° 0 mm 5 mps 744 mmHg 97%
02:00 -6°C° 0 mm 5 mps 744 mmHg 97%
03:00 -6°C° 0 mm 5 mps 744 mmHg 97%
04:00 -6°C° 0 mm 5 mps 745 mmHg 97%
05:00 -6°C° 0 mm 5 mps 745 mmHg 97%
06:00 -6°C° 0 mm 5 mps 745 mmHg 97%
07:00 -6°C° 0 mm 5 mps 745 mmHg 96%
08:00 -6°C° 0 mm 5 mps 745 mmHg 97%
09:00 -5°C° 0 mm 5 mps 746 mmHg 97%
10:00 -5°C° 0 mm 5 mps 746 mmHg 97%
11:00 -5°C° 0 mm 5 mps 746 mmHg 97%
12:00 -5°C° 0 mm 5 mps 746 mmHg 96%
13:00 -4°C° 0 mm 5 mps 746 mmHg 96%
14:00 -3°C° 0 mm 4 mps 746 mmHg 95%
15:00 -3°C° 0 mm 4 mps 746 mmHg 94%
16:00 -3°C° 0 mm 4 mps 746 mmHg 93%
17:00 -4°C° 0 mm 4 mps 746 mmHg 93%
18:00 -4°C° 0 mm 4 mps 746 mmHg 94%
19:00 -4°C° 0 mm 4 mps 746 mmHg 94%
20:00 -4°C° 0 mm 4 mps 746 mmHg 94%
21:00 -5°C° 0 mm 4 mps 746 mmHg 95%
22:00 -5°C° 0 mm 4 mps 746 mmHg 96%
23:00 -5°C° 0 mm 4 mps 746 mmHg 95%

Day after tomorrow, 26 January, Tuesday

Time Temperature Precipitation Wind Pressure Humidity
00:00 -5°C° 0 mm 4 mps 745 mmHg 95%
01:00 -5°C° 0 mm 4 mps 745 mmHg 95%
02:00 -5°C° 0 mm 4 mps 745 mmHg 95%
03:00 -4°C° 0 mm 4 mps 745 mmHg 95%
04:00 -4°C° 0 mm 4 mps 746 mmHg 95%
05:00 -4°C° 0 mm 4 mps 745 mmHg 95%
06:00 -4°C° 0 mm 4 mps 745 mmHg 95%
07:00 -4°C° 0 mm 4 mps 745 mmHg 95%
08:00 -5°C° 0 mm 5 mps 745 mmHg 94%
09:00 -6°C° 0 mm 5 mps 745 mmHg 94%
10:00 -6°C° 0 mm 5 mps 745 mmHg 94%
11:00 -6°C° 0 mm 5 mps 745 mmHg 94%
12:00 -6°C° 0 mm 5 mps 745 mmHg 94%
13:00 -7°C° 0 mm 5 mps 745 mmHg 94%
14:00 -7°C° 0 mm 5 mps 745 mmHg 94%
15:00 -7°C° 0 mm 5 mps 745 mmHg 94%
16:00 -8°C° 0 mm 5 mps 745 mmHg 94%
17:00 -9°C° 0 mm 4 mps 745 mmHg 95%
18:00 -10°C° 0 mm 4 mps 745 mmHg 95%
19:00 -11°C° 0 mm 4 mps 745 mmHg 95%
20:00 -12°C° 0 mm 4 mps 744 mmHg 95%
21:00 -12°C° 0 mm 4 mps 744 mmHg 95%
22:00 -14°C° 0 mm 4 mps 744 mmHg 94%
23:00 -14°C° 0 mm 4 mps 744 mmHg 94%

27 January, Wednesday

Time Temperature Precipitation Wind Pressure Humidity
00:00 -14°C° 0 mm 4 mps 744 mmHg 93%
01:00 -14°C° 0 mm 4 mps 744 mmHg 92%
02:00 -14°C° 0 mm 4 mps 744 mmHg 92%
03:00 -14°C° 0 mm 4 mps 744 mmHg 92%
04:00 -14°C° 0 mm 5 mps 744 mmHg 93%
05:00 -14°C° 0 mm 5 mps 744 mmHg 93%
06:00 -14°C° 0 mm 5 mps 744 mmHg 93%
07:00 -14°C° 0 mm 5 mps 743 mmHg 93%
08:00 -13°C° 0 mm 5 mps 743 mmHg 92%
09:00 -14°C° 0 mm 6 mps 743 mmHg 92%
10:00 -14°C° 0 mm 6 mps 743 mmHg 92%
11:00 -12°C° 0 mm 6 mps 743 mmHg 91%
12:00 -11°C° 0 mm 6 mps 743 mmHg 90%
13:00 -11°C° 0 mm 6 mps 743 mmHg 89%
14:00 -11°C° 0 mm 6 mps 743 mmHg 89%
15:00 -11°C° 0 mm 6 mps 743 mmHg 89%
16:00 -11°C° 0 mm 5 mps 743 mmHg 90%
17:00 -11°C° 0 mm 5 mps 743 mmHg 90%
18:00 -11°C° 0 mm 5 mps 743 mmHg 90%
19:00 -12°C° 0 mm 6 mps 742 mmHg 90%
20:00 -12°C° 0 mm 5 mps 742 mmHg 89%
21:00 -11°C° 0 mm 5 mps 742 mmHg 89%
22:00 -11°C° 0 mm 5 mps 742 mmHg 89%
23:00 -11°C° 0 mm 5 mps 742 mmHg 89%

28 January, Thursday

Time Temperature Precipitation Wind Pressure Humidity
00:00 -12°C° 0 mm 5 mps 742 mmHg 88%
01:00 -12°C° 0 mm 5 mps 741 mmHg 88%
02:00 -12°C° 0 mm 5 mps 741 mmHg 88%
03:00 -12°C° 0 mm 5 mps 741 mmHg 88%
04:00 -12°C° 0 mm 6 mps 741 mmHg 88%
05:00 -12°C° 0 mm 6 mps 740 mmHg 88%
06:00 -14°C° 0 mm 6 mps 740 mmHg 88%
07:00 -14°C° 0 mm 6 mps 740 mmHg 88%
08:00 -14°C° 0 mm 6 mps 739 mmHg 87%
09:00 -14°C° 0 mm 6 mps 739 mmHg 86%
10:00 -12°C° 0 mm 6 mps 739 mmHg 86%
11:00 -12°C° 0 mm 7 mps 738 mmHg 85%
12:00 -12°C° 0 mm 7 mps 738 mmHg 84%
13:00 -11°C° 0 mm 7 mps 737 mmHg 83%
14:00 -11°C° 0 mm 7 mps 737 mmHg 83%
15:00 -11°C° 0 mm 7 mps 736 mmHg 84%
16:00 -11°C° 0 mm 7 mps 736 mmHg 85%
17:00 -11°C° 0 mm 7 mps 735 mmHg 85%
18:00 -9°C° 0 mm 6 mps 735 mmHg 85%
19:00 -9°C° 0 mm 6 mps 735 mmHg 85%
20:00 -9°C° 0 mm 6 mps 735 mmHg 85%
21:00 -9°C° 0 mm 6 mps 734 mmHg 86%
22:00 -9°C° 0 mm 6 mps 734 mmHg 86%

29 January, Friday

Time Temperature Precipitation Wind Pressure Humidity
Show more